Location: Hiekkapohja
(62.3333°N, 25.7833°E)
Time: 19:54:35
(UTC+00:00)

Cosmos 2219 - Pass Details

Date: 07 August 2020
Orbit: 834 x 860 km, 71.1° (Epoch: 22 September)

Event Time Altitude Azimuth Distance (km) Brightness Sun altitude
Exits shadow 00:45:18 - 207° (SSW) 2,649 5.1 -6.5°
Reaches altitude 10° 00:45:50 10° 206° (SSW) 2,448 4.9 -6.4°
Maximum altitude 00:51:23 67° 126° (SE) 908 3.4 -6.1°
Drops below altitude 10° 00:56:59 10° 45° (NE) 2,459 7.4 -5.7°
Sets 00:59:26 0° 43° (NE) 3,398 9.0 -5.5°
